Weather History for Taos, NM

Change the Weather History Date:

Wednesday, October 17, 2012

  Actual Average Record
Temperature  
Mean Temperature 52 °F -  
Max Temperature 68 °F 61 °F 73 °F (2003)
Min Temperature 37 °F 28 °F 19 °F (1999)
Degree Days  
Heating Degree Days 12    
Growing Degree Days 2 (Base 50)    
Moisture  
Dew Point 14 °F    
Average Humidity 23    
Maximum Humidity 43    
Minimum Humidity 11    
Precipitation  
Precipitation 0.00 in - - ()
Sea Level Pressure  
Sea Level Pressure 30.01 in    
Wind  
Wind Speed 5 mph (West)    
Max Wind Speed 21 mph    
Max Gust Speed 31 mph    
Visibility 10 miles    
Events      
Averages and records for this station are not official NWS values.
T = Trace of Precipitation, MM = Missing Value Source: NWS Daily Summary

Daily Weather History Graph

Daily Weather History Graph

Search for Another Location

Airport:

Trip Planner

Search our weather history database for the weather conditions in past years. The results will help you decide how hot, cold, wet, or windy it might be!

Date:

Astronomy

Oct. 17, 2012 Rise Set
Actual Time 7:12 AM MDT 6:23 PM MDT
Civil Twilight 6:46 AM MDT 6:49 PM MDT
Nautical Twilight 6:16 AM MDT 7:19 PM MDT
Astronomical Twilight 5:46 AM MDT 7:48 PM MDT
Moon 9:44 AM MDT (10/17) 8:06 PM MDT (10/17)
Length of Visible Light 12h 03m
Length of Day
11h 10m
Waxing Crescent, 7% of the Moon is Illuminated
Oct 17
Waxing Crescent
Oct 21
First Quarter
Oct 29
Full
Nov 6
Last Quarter
Nov 13
New

Hourly Weather History & Observations

Time (MDT) Temp. Windchill Dew Point Humidity Pressure Visibility Wind Dir Wind Speed Gust Speed Precip Events Conditions
12:15 AM 50.0 °F - 19.4 °F 30% 29.96 in 10.0 mi Calm Calm - N/A   Clear
12:35 AM 51.8 °F - 21.2 °F 30% 29.96 in 10.0 mi Calm Calm - N/A   Clear
12:55 AM 48.2 °F - 19.4 °F 32% 29.97 in 10.0 mi Calm Calm - N/A   Clear
1:15 AM 51.8 °F - 21.2 °F 30% 29.96 in 10.0 mi Calm Calm - N/A   Clear
1:35 AM 53.6 °F - 21.2 °F 28% 29.96 in 10.0 mi West 4.6 mph - N/A   Clear
1:55 AM 53.6 °F - 21.2 °F 28% 29.96 in 10.0 mi Calm Calm - N/A   Clear
2:15 AM 55.4 °F - 21.2 °F 26% 29.96 in 10.0 mi North 3.5 mph - N/A   Clear
2:35 AM 51.8 °F - 21.2 °F 30% 29.96 in 10.0 mi North 5.8 mph - N/A   Clear
2:55 AM 48.2 °F - 19.4 °F 32% 29.95 in 10.0 mi Calm Calm - N/A   Clear
3:15 AM 42.8 °F - 17.6 °F 36% 29.95 in 10.0 mi Calm Calm - N/A   Clear
3:35 AM 46.4 °F 42.9 °F 19.4 °F 34% 29.94 in 10.0 mi SW 6.9 mph - N/A   Clear
3:55 AM 46.4 °F - 19.4 °F 34% 29.94 in 10.0 mi Calm Calm - N/A   Clear
4:15 AM 44.6 °F 42.2 °F 19.4 °F 37% 29.94 in 10.0 mi SSE 4.6 mph - N/A   Clear
4:35 AM 44.6 °F 42.2 °F 19.4 °F 37% 29.94 in 10.0 mi SE 4.6 mph - N/A   Clear
4:55 AM 44.6 °F - 17.6 °F 34% 29.95 in 10.0 mi Calm Calm - N/A   Clear
5:15 AM 46.4 °F - 21.2 °F 37% 29.95 in 10.0 mi Calm Calm - N/A   Clear
5:55 AM 42.8 °F 38.0 °F 19.4 °F 39% 29.96 in 10.0 mi SE 8.1 mph - N/A   Clear
6:15 AM 46.4 °F 45.2 °F 21.2 °F 37% 29.97 in 10.0 mi SSE 3.5 mph - N/A   Clear
6:35 AM 44.6 °F - 19.4 °F 37% 29.98 in 10.0 mi Calm Calm - N/A   Clear
6:55 AM 39.2 °F 34.2 °F 17.6 °F 42% 29.98 in 10.0 mi SW 6.9 mph - N/A   Clear
7:15 AM 42.8 °F 41.1 °F 19.4 °F 39% 29.98 in 10.0 mi WSW 3.5 mph - N/A   Clear
7:35 AM 42.8 °F 41.1 °F 21.2 °F 42% 30.00 in 10.0 mi NNE 3.5 mph - N/A   Clear
7:55 AM 46.4 °F - 24.8 °F 43% 30.01 in 10.0 mi Calm Calm - N/A   Clear
8:15 AM 51.8 °F - 26.6 °F 38% 30.01 in 10.0 mi West 4.6 mph - N/A   Clear
8:35 AM 51.8 °F - 26.6 °F 38% 30.01 in 10.0 mi Calm Calm - N/A   Clear
8:55 AM 53.6 °F - 26.6 °F 35% 30.01 in 10.0 mi West 4.6 mph - N/A   Clear
9:15 AM 55.4 °F - 28.4 °F 36% 30.01 in 10.0 mi West 12.7 mph 18.4 mph N/A   Clear
9:35 AM 57.2 °F - 26.6 °F 31% 30.02 in 10.0 mi WNW 10.4 mph 18.4 mph N/A   Clear
9:55 AM 59.0 °F - 26.6 °F 29% 30.03 in 10.0 mi West 13.8 mph 20.7 mph N/A   Clear
10:15 AM 59.0 °F - 24.8 °F 27% 30.02 in 10.0 mi WSW 12.7 mph - N/A   Clear
10:55 AM 62.6 °F - 23.0 °F 22% 30.00 in 10.0 mi West 16.1 mph 19.6 mph N/A   Clear
11:15 AM 62.6 °F - 23.0 °F 22% 30.00 in 10.0 mi West 16.1 mph 21.9 mph N/A   Clear
11:35 AM 64.4 °F - 21.2 °F 19% 30.01 in 10.0 mi West 17.3 mph 24.2 mph N/A   Clear
11:55 AM 64.4 °F - 19.4 °F 18% 30.00 in 10.0 mi WSW 18.4 mph 24.2 mph N/A   Clear
12:15 PM 64.4 °F - 19.4 °F 18% 29.99 in 10.0 mi West 20.7 mph 29.9 mph N/A   Clear
12:35 PM 66.2 °F - 19.4 °F 17% 29.99 in 10.0 mi West 18.4 mph 27.6 mph N/A   Clear
12:55 PM 66.2 °F - 17.6 °F 15% 30.00 in 10.0 mi North 5.8 mph 23.0 mph N/A   Clear
1:15 PM 66.2 °F - 15.8 °F 14% 29.99 in 10.0 mi North 16.1 mph 20.7 mph N/A   Clear
1:35 PM 66.2 °F - 15.8 °F 14% 29.99 in 10.0 mi NNE 12.7 mph - N/A   Clear
1:55 PM 66.2 °F - 12.2 °F 12% 29.99 in 10.0 mi North 12.7 mph 25.3 mph N/A   Clear
2:15 PM 66.2 °F - 12.2 °F 12% 29.99 in 10.0 mi North 10.4 mph 17.3 mph N/A   Clear
2:35 PM 66.2 °F - 12.2 °F 12% 29.99 in 10.0 mi North 9.2 mph 16.1 mph N/A   Clear
2:55 PM 66.2 °F - 12.2 °F 12% 29.98 in 10.0 mi WNW 6.9 mph - N/A   Clear
3:15 PM 66.2 °F - 10.4 °F 11% 29.98 in 10.0 mi North 6.9 mph - N/A   Clear
3:35 PM 66.2 °F - 12.2 °F 12% 29.98 in 10.0 mi NW 5.8 mph - N/A   Clear
3:55 PM 66.2 °F - 10.4 °F 11% 29.97 in 10.0 mi NW 3.5 mph - N/A   Clear
4:15 PM 68.0 °F - 12.2 °F 12% 29.97 in 10.0 mi West 19.6 mph 25.3 mph N/A   Clear
4:35 PM 66.2 °F - 10.4 °F 11% 29.97 in 10.0 mi West 20.7 mph 31.1 mph N/A   Clear
4:55 PM 64.4 °F - 10.4 °F 12% 29.98 in 10.0 mi West 18.4 mph 28.8 mph N/A   Clear
5:15 PM 64.4 °F - 8.6 °F 11% 29.99 in 10.0 mi West 19.6 mph 26.5 mph N/A   Clear
5:55 PM 60.8 °F - 6.8 °F 12% 30.01 in 10.0 mi WNW 15.0 mph 19.6 mph N/A   Clear
6:15 PM 59.0 °F - 5.0 °F 12% 30.02 in 10.0 mi WNW 10.4 mph - N/A   Clear
6:35 PM 55.4 °F - 1.4 °F 11% 30.03 in 10.0 mi West 8.1 mph - N/A   Clear
6:55 PM 53.6 °F - 1.4 °F 12% 30.04 in 10.0 mi WSW 5.8 mph - N/A   Clear
7:15 PM 53.6 °F - 1.4 °F 12% 30.05 in 10.0 mi West 4.6 mph - N/A   Clear
7:35 PM 53.6 °F - 1.4 °F 12% 30.06 in 10.0 mi SSE 5.8 mph - N/A   Clear
7:55 PM 50.0 °F - -0.4 °F 13% 30.07 in 10.0 mi SW 8.1 mph - N/A   Clear
8:15 PM 51.8 °F - 1.4 °F 13% 30.09 in 10.0 mi NW 4.6 mph - N/A   Clear
8:35 PM 48.2 °F - 1.4 °F 15% 30.10 in 10.0 mi NNE 3.5 mph - N/A   Clear
8:55 PM 39.2 °F - -2.2 °F 17% 30.10 in 10.0 mi Calm Calm - N/A   Clear
9:15 PM 44.6 °F 41.4 °F 1.4 °F 17% 30.11 in 10.0 mi WSW 5.8 mph - N/A   Clear
9:35 PM 44.6 °F 39.2 °F 1.4 °F 17% 30.11 in 10.0 mi WSW 10.4 mph - N/A   Clear
9:55 PM 42.8 °F 36.6 °F -0.4 °F 16% 30.11 in 10.0 mi SW 11.5 mph - N/A   Clear
10:15 PM 39.2 °F 34.2 °F -0.4 °F 19% 30.11 in 10.0 mi WSW 6.9 mph - N/A   Clear
10:35 PM 41.0 °F 37.1 °F 1.4 °F 19% 30.11 in 10.0 mi WSW 5.8 mph - N/A   Clear
10:55 PM 37.4 °F - -0.4 °F 20% 30.12 in 10.0 mi Calm Calm - N/A   Clear
11:15 PM 42.8 °F 40.1 °F 1.4 °F 18% 30.12 in 10.0 mi WNW 4.6 mph - N/A   Clear
11:35 PM 42.8 °F 41.1 °F 1.4 °F 18% 30.12 in 10.0 mi WNW 3.5 mph - N/A   Clear
11:55 PM 39.2 °F 37.0 °F -2.2 °F 17% 30.13 in 10.0 mi NNW 3.5 mph - N/A   Clear